Location: Tr�vern
(48.0333°N, 4.6000°W)
Time: 18:30:57
(UTC+00:00)

Meteor 1-29 - Pass Details

Date: 14 July 2020
Orbit: 440 x 459 km, 97.7° (Epoch: 12 August)

Event Time Altitude Azimuth Distance (km) Brightness Sun altitude
Rises 00:54:53 0° 18° (NNE) 2,465 8.2 -20.0°
Reaches altitude 10° 00:56:59 10° 25° (NNE) 1,591 6.8 -20.0°
Maximum altitude 01:00:16 45° 100° (E) 628 3.5 -19.9°
Enters shadow 01:00:29 44° 112° (ESE) 634 3.5 -19.9°
